Retour au catalogue

OPS 4682 DEB

LostPO
NORAD 38371·DEBRIS·🇺🇸 United States

Lancé Apr 3, 1965 depuis Vandenberg Space Force Base

Loading…

Prochains Passages (prochaines 24 heures)

TLE

PériméSource: Space-Track

Époque: Jan 31, 2016, 06:56 UTC

1 38371U 65027BY  16031.28914343 +.00001315 +00000-0 +40727-2 0  9999
2 38371 090.3013 276.6805 0030766 021.0140 340.9188 13.04410835613095

Suivez OPS 4682 DEB en temps réel avec AllMySat

Download on the App Store